Regional Weather Roundup
Issued by NWS

Home | Current Version | Previous Version | Graphics & Text | Print | Product List | Glossary On
Versions: 1 2 3 4 5 6 7 8 9 10 11 12 13 14 15 16 17 18 19 20 21 22 23 24 25 26 27 28
000
ASUS45 KPSR 230610
RWRAZ

ARIZONA HOURLY REGIONAL WEATHER ROUNDUP
NATIONAL WEATHER SERVICE PHOENIX AZ
1100 PM MST TUE AUG 22 2017

NOTE: FAIR INDICATES FEW OR NO CLOUDS BELOW 12,000 FEET WITH NO
SIGNIFICANT WEATHER AND/OR OBSTRUCTIONS TO VISIBILITY.

AZZ001>003-036-230700-
NORTHWEST ARIZONA

CITY           SKY/WX    TMP DP  RH WIND       PRES   REMARKS
BULLHEAD CITY  CLEAR     95  43  16 CALM      29.84S
KINGMAN        CLEAR     70  50  49 CALM      30.08F
6HR MIN TEMP:  70; 6HR MAX TEMP:  94;

$$

AZZ004>008-015-016-018-230700-
NORTH CENTRAL ARIZONA

CITY           SKY/WX    TMP DP  RH WIND       PRES   REMARKS
GRAND CANYON   CLEAR     55  51  86 CALM      30.33F
6HR MIN TEMP:  55; 6HR MAX TEMP:  80;

WILLIAMS       CLEAR     55  48  76 S7        30.35S
PRESCOTT       CLEAR     67  48  50 S7        30.21F
6HR MIN TEMP:  67; 6HR MAX TEMP:  87;

FLAGSTAFF      PTCLDY    53  46  77 CALM      30.37F
6HR MIN TEMP:  53; 6HR MAX TEMP:  77;

PAYSON           N/A     72  46  40 CALM      30.22F
PAGE           PTCLDY    80  45  28 W3        30.13S
6HR MIN TEMP:  79; 6HR MAX TEMP:  91;

$$

AZZ009>014-017-230700-
NORTHEAST ARIZONA

CITY           SKY/WX    TMP DP  RH WIND       PRES   REMARKS
WINSLOW        CLOUDY    74  44  34 SW10      30.20S
6HR MIN TEMP:  74; 6HR MAX TEMP:  92;

SAINT JOHNS    CLEAR     70  45  40 S5        30.25S
6HR MIN TEMP:  69; 6HR MAX TEMP:  86;

WINDOW ROCK    PTCLDY    56  46  69 CALM      30.35S
6HR MIN TEMP:  56; 6HR MAX TEMP:  85;

SHOW LOW       PTCLDY    63  48  59 S5        30.32F
$$

AZZ540-542>544-546-548-230700-
GREATER PHOENIX AREA

CITY           SKY/WX    TMP DP  RH WIND       PRES   REMARKS
PHOENIX        PTCLDY    95  53  24 W3        29.84F
6HR MIN TEMP:  95; 6HR MAX TEMP: 107;

BUCKEYE        PTCLDY    90  50  25 NW7       29.85F
LUKE AFB       CLEAR     89  58  33 NE6       29.84S
6HR MIN TEMP:  89; 6HR MAX TEMP: 106; 6HR PCP: TRACE;

DEER VALLEY    CLEAR     92  50  23 NE5       29.88S
6HR MIN TEMP:  91; 6HR MAX TEMP: 106;

SCOTTSDALE     CLEAR     94  52  24 N5        29.90S
6HR MIN TEMP:  94; 6HR MAX TEMP: 106;

MESA-GATEWAY   CLEAR     91  55  29 CALM      29.89S
$$

AZZ539-553-230700-
SOUTHWEST MARICOPA COUNTY AND PINAL COUNTY

CITY           SKY/WX    TMP DP  RH WIND       PRES   REMARKS
CASA GRANDE    PTCLDY    90  55  30 CALM      29.90S
GILA BEND      PTCLDY    95  59  30 S9        29.85S
6HR MIN TEMP:  95; 6HR MAX TEMP: 107;

$$

AZZ503-504-507>509-230700-
SOUTHEAST ARIZONA

CITY           SKY/WX    TMP DP  RH WIND       PRES   REMARKS
TUCSON         NOT AVBL
DAVIS-MONTHAN  CLEAR     85  59  40 CALM      30.01S
6HR MIN TEMP:  85; 6HR MAX TEMP:  98;

NOGALES        PTCLDY    75  59  57 SE3       30.13R
6HR MIN TEMP:  75; 6HR MAX TEMP:  94;

SIERRA VISTA   PTCLDY    76  54  45 CALM      30.21R
6HR MIN TEMP:  76; 6HR MAX TEMP:  89;

DOUGLAS        MOCLDY    74  60  61 CALM      30.14F
6HR MIN TEMP:  74; 6HR MAX TEMP:  92;

SAFFORD        PTCLDY    82  51  34 E5        30.02R
6HR MIN TEMP:  80; 6HR MAX TEMP:  98;

$$

AZZ532-230700-
SOUTHWEST ARIZONA

CITY           SKY/WX    TMP DP  RH WIND       PRES   REMARKS
YUMA           CLEAR     92  67  43 SE9       29.82S
6HR MIN TEMP:  91; 6HR MAX TEMP: 107;

$$

CAZ041-043-047-048-061-525>527-560>570-230700-
SOUTHERN CALIFORNIA

CITY           SKY/WX    TMP DP  RH WIND       PRES   REMARKS
DOWNTOWN L.A.  CLEAR     69  62  78 VRB3      29.97S
6HR MIN TEMP:  69; 6HR MAX TEMP:  78;

L.A. AIRPORT   MOCLDY    68  64  87 SW8       29.97S
6HR MIN TEMP:  68; 6HR MAX TEMP:  74;

SAN DIEGO      CLOUDY    70  63  78 CALM      30.00F
6HR MIN TEMP:  70; 6HR MAX TEMP:  73;

BURBANK        CLEAR     68  60  75 E8        29.97F
6HR MIN TEMP:  68; 6HR MAX TEMP:  84;

ONTARIO        CLEAR     71  59  65 W10       29.98F
6HR MIN TEMP:  71; 6HR MAX TEMP:  91;

RIVERSIDE      CLEAR     70  62  76 W7        29.98F
6HR MIN TEMP:  70; 6HR MAX TEMP:  91;

PALM SPRINGS   CLEAR     94  55  26 NW14      29.85S
6HR MIN TEMP:  94; 6HR MAX TEMP: 107;

EL CENTRO NAS  CLEAR     93  49  22 W10       29.81S
6HR MIN TEMP:  92; 6HR MAX TEMP: 107;

IMPERIAL       CLEAR     92  53  26 SW8       29.78F
6HR MIN TEMP:  92; 6HR MAX TEMP: 108;

BLYTHE         CLEAR     98  54  22 W6        29.82S
6HR MIN TEMP:  97; 6HR MAX TEMP: 108;

NEEDLES        CLEAR     97  47  18 W10       29.85S
6HR MIN TEMP:  97; 6HR MAX TEMP: 108;

$$

NVZ020-UTZ003-230700-
SOUTHERN NEVADA-UTAH

CITY           SKY/WX    TMP DP  RH WIND       PRES   REMARKS
LAS VEGAS      MOCLDY    93  47  20 CALM      29.95S
6HR MIN TEMP:  93; 6HR MAX TEMP: 101;

SALT LAKE CITY CLOUDY    75  54  47 SE5       30.16F
6HR MIN TEMP:  75; 6HR MAX TEMP:  87; 6HR PCP: TRACE;

$$

NMZ009-TXZ055-230700-
NEW MEXICO-WEST TEXAS

CITY           SKY/WX    TMP DP  RH WIND       PRES   REMARKS
ALBUQUERQUE    TSTM      71  58  63 E18G28    30.31R
6HR MIN TEMP:  71; 6HR MAX TEMP:  86;

EL PASO        MOCLDY    80  62  54 E5        30.14S
6HR MIN TEMP:  79; 6HR MAX TEMP:  91;

$$


........................KEY........................
SKY/WX - SKY CONDITION/WEATHER
TMP    - TEMPERATURE IN FAHRENHEIT
DP     - DEW POINT IN FAHRENHEIT
RH     - RELATIVE HUMIDITY IN PERCENT
WIND   - DIRECTION AND SPEED IN MILES PER HOUR (MPH)
VRB    - VARIABLE WIND DIRECTION
PRES   - MEAN SEA LEVEL PRESSURE IN INCHES OF MERCURY
         F - FALLING PRESSURE   R - RISING PRESSURE
         S - STEADY PRESSURE
VSB    - VISIBILITY IN MILES
HX     - HEAT INDEX IN FAHRENHEIT
WCI    - WIND CHILL INDEX IN FAHRENHEIT
TC     - TEMPERATURE IN CELSIUS WHICH IS ALSO KNOWN AS
         TEMPERATURE IN CENTIGRADE
AFB    - AIR FORCE BASE
         LUKE AFB IS LUKE AIR FORCE BASE
         DAVIS-MONTHAN IS DAVIS-MONTHAN AIR FORCE BASE
NAS    - NAVAL AIR STATION
         EL CENTRO NAS IS EL CENTRO NAVAL AIR STATION
N/A    - NOT AVAILABLE





USA.gov is the U.S. government's official web portal to all federal, state and local government web resources and services.